Погода в Ивановке

Россия / Воронежская область     51°26′29″N   38°57′59″E
темп.,
°C
ветер,
м/с
пор.,
м/с
влажн.,
%
обл.,
%
осадки,
мм/ч
давл.,
гПа
погр.,
м
18 мая, вт
вт1800:00+16юв377687 0.0 100797
03:00+14вюв337648 0.0 100733
06:00+14вюв3116999 0.0 1006193
09:00+21юв61154100 0.0 1006493
12:00+24юв6945100 0.0 10051016
15:00+24юв695294 0.0 10051398
18:00+19ююз5981100 0.3 1006541
21:00+15ю4992100 1.2 1007383
19 мая, ср
ср1900:00+15вюв379586 0.4 1007187
03:00+13юв37964 0.5 1007179
06:00+14ююв37935 0.0 1008220
09:00+18ю587312 0.0 1008788
12:00+21юв5661100 0.2 10071533
15:00+20юв5768100 1.9 1006977
18:00+15юв51291100 3.1 1007737
21:00+13ююв4996100 3.1 1006350
20 мая, чт
чт2000:00+13ююв3992100 0.3 1006366
03:00+12ююв5896100 0.6 1006306
06:00+11ююв5109644 0.1 1007352
09:00+15ююв578033 0.1 1007826
12:00+15ююв678064 0.8 1008830
15:00+18юз566799 1.1 10081304
18:00+16зюз58785 0.5 1010821
21:00+12зюз498614 0.6 1011308
21 мая, пт
пт2100:00+10юз4995100 0.0 1012199
03:00+10юз389616 0.0 1013207
06:00+11зюз388993 0.0 1014304
09:00+14зюз2479100 0.0 1015401
12:00+19ююз356399 0.1 10151397
15:00+20ююв3464100 0.6 10151075
18:00+18в2276100 0.3 101434
21:00+15в3887100 0.8 1014165
22 мая, сб
сб2200:00+15св3691100 0.2 1013147
03:00+14ссв2394100 0.6 101254
06:00+15св2491100 0.1 1011136
09:00+19в2372100 0.3 1011566
12:00+22всв3362100 0.1 1012901
15:00+24в2258100 0.1 10111026
18:00+24ссз2269100 0.0 1012175
21:00+18с51089100 0.0 1013273